| time (UTC) | temp C | wind direction | speed KPH | gust KPH | rain 1hr cm | rain 24hr cm | rain mn cm | humidity % | barometer mb |
| 20260510225004 | 20 | 298 | 1.6 | 11.3 | 0.00 | 0.00 | 0.00 | 52 | 1007.6 |
| 20260510224526 | 20 | 284 | 3.2 | 9.7 | 0.00 | 0.00 | 0.00 | 51 | 1007.7 |
| 20260510224031 | 20 | 286 | 3.2 | 9.7 | 0.00 | 0.00 | 0.00 | 52 | 1007.7 |
| 20260510223539 | 20 | 50 | 3.2 | 8.0 | 0.00 | 0.00 | 0.00 | 54 | 1007.6 |
| 20260510223008 | 20 | 5 | 4.8 | 9.7 | 0.00 | 0.00 | 0.00 | 53 | 1007.6 |
| 20260510222526 | 21 | 32 | 4.8 | 12.9 | 0.00 | 0.00 | 0.00 | 51 | 1007.7 |
| 20260510222030 | 21 | 327 | 6.4 | 14.5 | 0.00 | 0.00 | 0.00 | 51 | 1007.7 |
| 20260510221602 | 21 | 346 | 6.4 | 14.5 | 0.00 | 0.00 | 0.00 | 54 | 1007.5 |
| 20260510221003 | 20 | 23 | 3.2 | 14.5 | 0.00 | 0.00 | 0.00 | 54 | 1007.6 |
| 20260510220511 | 20 | 107 | 1.6 | 9.7 | 0.00 | 0.00 | 0.00 | 54 | 1007.6 |
| 20260510220045 | 20 | 5 | 4.8 | 9.7 | 0.00 | 0.00 | 0.00 | 55 | 1007.6 |
| 20260510215551 | 19 | 228 | 1.6 | 8.0 | 0.00 | 0.00 | 0.00 | 54 | 1007.5 |
| 20260510215059 | 19 | 279 | 4.8 | 8.0 | 0.00 | 0.00 | 0.00 | 54 | 1007.5 |
| 20260510214537 | 19 | 284 | 3.2 | 9.7 | 0.00 | 0.00 | 0.00 | 58 | 1007.5 |
| 20260510214045 | 20 | 291 | 4.8 | 16.1 | 0.00 | 0.00 | 0.00 | 56 | 1007.6 |
| 20260510213554 | 20 | 40 | 6.4 | 16.1 | 0.00 | 0.00 | 0.00 | 55 | 1007.5 |
| 20260510213030 | 20 | 26 | 4.8 | 14.5 | 0.00 | 0.00 | 0.00 | 56 | 1007.6 |
| 20260510212539 | 20 | 296 | 1.6 | 12.9 | 0.00 | 0.00 | 0.00 | 58 | 1007.7 |
| 20260510212041 | 20 | 273 | 1.6 | 12.9 | 0.00 | 0.00 | 0.00 | 57 | 1007.7 |
| 20260510211520 | 19 | 350 | 3.2 | 14.5 | 0.00 | 0.00 | 0.00 | 58 | 1007.6 |
| 20260510211026 | 20 | 350 | 3.2 | 14.5 | 0.00 | 0.00 | 0.00 | 54 | 1007.6 |
| 20260510210533 | 20 | 293 | 3.2 | 14.5 | 0.00 | 0.00 | 0.00 | 54 | 1007.6 |
| 20260510210004 | 20 | 293 | 6.4 | 14.5 | 0.00 | 0.00 | 0.00 | 54 | 1007.5 |
| 20260510205517 | 19 | 344 | 3.2 | 12.9 | 0.00 | 0.00 | 0.00 | 55 | 1007.4 |
| 20260510205027 | 19 | 257 | 3.2 | 12.9 | 0.00 | 0.00 | 0.00 | 57 | 1007.5 |
| 20260510204602 | 19 | 99 | 1.6 | 6.4 | 0.00 | 0.00 | 0.00 | 56 | 1007.5 |
| 20260510204004 | 19 | 30 | 3.2 | 6.4 | 0.00 | 0.00 | 0.00 | 60 | 1007.6 |
| 20260510203511 | 18 | 317 | 3.2 | 6.4 | 0.00 | 0.00 | 0.00 | 57 | 1007.7 |
| 20260510203033 | 18 | 82 | 3.2 | 12.9 | 0.00 | 0.00 | 0.00 | 58 | 1007.8 |
| 20260510202541 | 18 | 309 | 6.4 | 12.9 | 0.00 | 0.00 | 0.00 | 57 | 1007.9 |
| 20260510202048 | 19 | 38 | 4.8 | 12.9 | 0.00 | 0.00 | 0.00 | 54 | 1007.7 |
| 20260510201515 | 19 | 257 | 3.2 | 16.1 | 0.00 | 0.00 | 0.00 | 56 | 1007.7 |
| 20260510201029 | 19 | 267 | 8.0 | 16.1 | 0.00 | 0.00 | 0.00 | 56 | 1007.7 |
| 20260510200539 | 19 | 66 | 4.8 | 12.9 | 0.00 | 0.00 | 0.00 | 55 | 1007.6 |
| 20260510200005 | 19 | 333 | 4.8 | 9.7 | 0.00 | 0.00 | 0.00 | 57 | 1007.5 |
| 20260510195519 | 18 | 246 | 3.2 | 16.1 | 0.00 | 0.00 | 0.00 | 58 | 1007.5 |
| 20260510195025 | 19 | 332 | 6.4 | 16.1 | 0.00 | 0.00 | 0.00 | 55 | 1007.5 |
| 20260510194602 | 19 | 46 | 4.8 | 17.7 | 0.00 | 0.00 | 0.00 | 61 | 1007.4 |
| 20260510194058 | 18 | 67 | 6.4 | 12.9 | 0.00 | 0.00 | 0.00 | 59 | 1007.4 |
| 20260510193559 | 18 | 355 | 6.4 | 16.1 | 0.00 | 0.00 | 0.00 | 62 | 1007.5 |
| 20260510193034 | 17 | 44 | 8.0 | 16.1 | 0.00 | 0.00 | 0.00 | 63 | 1007.6 |
| 20260510192546 | 17 | 26 | 3.2 | 9.7 | 0.00 | 0.00 | 0.00 | 62 | 1007.7 |
| 20260510192051 | 18 | 9 | 3.2 | 8.0 | 0.00 | 0.00 | 0.00 | 62 | 1007.6 |
| 20260510191530 | 17 | 351 | 0.0 | 12.9 | 0.00 | 0.00 | 0.00 | 64 | 1007.6 |
| 20260510191037 | 17 | 286 | 6.4 | 16.1 | 0.00 | 0.00 | 0.00 | 62 | 1007.6 |
| 20260510190546 | 17 | 46 | 6.4 | 16.1 | 0.00 | 0.00 | 0.00 | 63 | 1007.7 |
| 20260510190012 | 17 | 327 | 4.8 | 8.0 | 0.00 | 0.00 | 0.00 | 64 | 1007.8 |
| 20260510185527 | 17 | 314 | 3.2 | 8.0 | 0.00 | 0.00 | 0.00 | 62 | 1007.8 |
| 20260510185035 | 17 | 283 | 4.8 | 9.7 | 0.00 | 0.00 | 0.00 | 63 | 1007.7 |
| 20260510184513 | 17 | 51 | 3.2 | 8.0 | 0.00 | 0.00 | 0.00 | 61 | 1007.3 |
| 20260510184018 | 17 | 63 | 1.6 | 9.7 | 0.00 | 0.00 | 0.00 | 61 | 1007.3 |
| 20260510183527 | 17 | 281 | 3.2 | 9.7 | 0.00 | 0.00 | 0.00 | 62 | 1007.3 |
| 20260510183057 | 18 | 287 | 4.8 | 9.7 | 0.00 | 0.00 | 0.00 | 62 | 1007.3 |
| 20260510182506 | 18 | 355 | 4.8 | 12.9 | 0.00 | 0.00 | 0.00 | 60 | 1007.2 |
| 20260510182011 | 18 | 269 | 4.8 | 16.1 | 0.00 | 0.00 | 0.00 | 64 | 1007.3 |
| 20260510181551 | 18 | 344 | 6.4 | 16.1 | 0.00 | 0.00 | 0.00 | 61 | 1006.9 |
| 20260510181057 | 18 | 30 | 6.4 | 14.5 | 0.00 | 0.00 | 0.00 | 65 | 1007.0 |
| 20260510180603 | 17 | 59 | 6.4 | 9.7 | 0.00 | 0.00 | 0.00 | 64 | 1007.0 |
| 20260510180038 | 17 | 314 | 3.2 | 9.7 | 0.00 | 0.00 | 0.00 | 64 | 1006.9 |
| 20260510175545 | 17 | 19 | 3.2 | 19.3 | 0.00 | 0.00 | 0.00 | 65 | 1006.9 |
| 20260510175051 | 17 | 78 | 4.8 | 19.3 | 0.00 | 0.00 | 0.00 | 66 | 1006.9 |
| 20260510174528 | 17 | 40 | 3.2 | 9.7 | 0.00 | 0.00 | 0.00 | 65 | 1006.9 |
| 20260510174031 | 17 | 5 | 4.8 | 9.7 | 0.00 | 0.00 | 0.00 | 66 | 1006.9 |
| 20260510173537 | 17 | 58 | 4.8 | 9.7 | 0.00 | 0.00 | 0.00 | 65 | 1006.9 |
| 20260510173003 | 17 | 39 | 4.8 | 9.7 | 0.00 | 0.00 | 0.00 | 64 | 1007.0 |
| 20260510172501 | 17 | 149 | 0.0 | 8.0 | 0.00 | 0.00 | 0.00 | 66 | 1007.0 |
| 20260510172007 | 16 | 34 | 3.2 | 9.7 | 0.00 | 0.00 | 0.00 | 66 | 1007.0 |
| 20260510171543 | 16 | 51 | 3.2 | 9.7 | 0.00 | 0.00 | 0.00 | 66 | 1007.1 |
| 20260510171051 | 16 | 26 | 0.0 | 8.0 | 0.00 | 0.00 | 0.00 | 67 | 1006.9 |
| 20260510170552 | 16 | 28 | 1.6 | 8.0 | 0.00 | 0.00 | 0.00 | 67 | 1006.7 |
| 20260510170027 | 16 | 84 | 3.2 | 6.4 | 0.00 | 0.00 | 0.00 | 68 | 1006.7 |
| 20260510165536 | 16 | 69 | 3.2 | 8.0 | 0.00 | 0.00 | 0.00 | 67 | 1006.7 |
| 20260510165038 | 16 | 348 | 0.0 | 8.0 | 0.00 | 0.00 | 0.00 | 68 | 1006.7 |
| 20260510164556 | 16 | 17 | 4.8 | 8.0 | 0.00 | 0.00 | 0.00 | 67 | 1006.6 |
| 20260510164057 | 16 | 347 | 4.8 | 11.3 | 0.00 | 0.00 | 0.00 | 68 | 1006.6 |
| 20260510163559 | 16 | 61 | 3.2 | 11.3 | 0.00 | 0.00 | 0.00 | 68 | 1006.6 |
| 20260510163049 | 16 | 42 | 1.6 | 12.9 | 0.00 | 0.00 | 0.00 | 67 | 1006.6 |
| 20260510162545 | 16 | 61 | 6.4 | 12.9 | 0.00 | 0.00 | 0.00 | 68 | 1006.6 |
| 20260510162054 | 16 | 37 | 6.4 | 11.3 | 0.00 | 0.00 | 0.00 | 69 | 1006.7 |
| 20260510161521 | 15 | 65 | 6.4 | 9.7 | 0.00 | 0.00 | 0.00 | 69 | 1006.7 |
| 20260510161025 | 15 | 355 | 3.2 | 9.7 | 0.00 | 0.00 | 0.00 | 69 | 1006.8 |
| 20260510160533 | 15 | 22 | 4.8 | 9.7 | 0.00 | 0.00 | 0.00 | 71 | 1006.7 |
| 20260510160112 | 15 | 70 | 4.8 | 9.7 | 0.00 | 0.00 | 0.00 | 71 | 1006.6 |
| 20260510155603 | 15 | 40 | 6.4 | 14.5 | 0.00 | 0.00 | 0.00 | 72 | 1006.4 |
| 20260510155007 | 14 | 31 | 4.8 | 12.9 | 0.00 | 0.00 | 0.00 | 71 | 1006.5 |
| 20260510154539 | 14 | 291 | 1.6 | 12.9 | 0.00 | 0.00 | 0.00 | 71 | 1006.6 |
| 20260510154039 | 14 | 71 | 3.2 | 12.9 | 0.00 | 0.00 | 0.00 | 72 | 1006.6 |
| 20260510153546 | 13 | 293 | 1.6 | 12.9 | 0.00 | 0.00 | 0.00 | 73 | 1006.7 |
| 20260510153021 | 13 | 256 | 4.8 | 11.3 | 0.00 | 0.00 | 0.00 | 74 | 1006.7 |
| 20260510152529 | 13 | 285 | 4.8 | 9.7 | 0.00 | 0.00 | 0.00 | 75 | 1006.5 |
| 20260510152032 | 13 | 355 | 1.6 | 11.3 | 0.00 | 0.00 | 0.00 | 76 | 1006.2 |
| 20260510151559 | 13 | 298 | 4.8 | 11.3 | 0.00 | 0.00 | 0.00 | 77 | 1006.3 |
| 20260510151001 | 13 | 318 | 0.0 | 3.2 | 0.00 | 0.00 | 0.00 | 79 | 1006.3 |
| 20260510150516 | 12 | 50 | 0.0 | 0.0 | 0.00 | 0.00 | 0.00 | 80 | 1006.3 |
| 20260510150027 | 12 | 15 | 0.0 | 0.0 | 0.00 | 0.00 | 0.00 | 81 | 1006.2 |
| 20260510145533 | 12 | 12 | 0.0 | 3.2 | 0.00 | 0.00 | 0.00 | 80 | 1006.3 |
| 20260510145032 | 12 | 12 | 0.0 | 3.2 | 0.00 | 0.00 | 0.00 | 80 | 1006.3 |
| 20260510144602 | 11 | 322 | 0.0 | 4.8 | 0.00 | 0.00 | 0.00 | 81 | 1006.2 |
| 20260510144025 | 11 | 310 | 1.6 | 4.8 | 0.00 | 0.00 | 0.00 | 82 | 1006.2 |
| 20260510143511 | 11 | 194 | 1.6 | 11.3 | 0.00 | 0.00 | 0.00 | 82 | 1006.0 |
| 20260510143107 | 11 | 290 | 1.6 | 11.3 | 0.00 | 0.00 | 0.00 | 83 | 1006.0 |
| 20260510142558 | 11 | 290 | 1.6 | 6.4 | 0.00 | 0.00 | 0.00 | 83 | 1006.2 |
| 20260510142003 | 11 | 225 | 0.0 | 4.8 | 0.00 | 0.00 | 0.00 | 83 | 1006.3 |
| 20260510141542 | 11 | 266 | 0.0 | 4.8 | 0.00 | 0.00 | 0.00 | 83 | 1006.1 |
| 20260510141051 | 11 | 245 | 0.0 | 0.0 | 0.00 | 0.00 | 0.00 | 83 | 1005.7 |
| 20260510140552 | 11 | 245 | 0.0 | 3.2 | 0.00 | 0.00 | 0.00 | 83 | 1005.8 |
| 20260510140007 | 11 | 245 | 0.0 | 3.2 | 0.00 | 0.00 | 0.00 | 84 | 1005.7 |
| 20260510135514 | 11 | 245 | 0.0 | 4.8 | 0.00 | 0.00 | 0.00 | 84 | 1005.6 |
| 20260510135022 | 11 | 245 | 0.0 | 4.8 | 0.00 | 0.00 | 0.00 | 83 | 1005.6 |
| 20260510134535 | 11 | 238 | 1.6 | 3.2 | 0.00 | 0.00 | 0.00 | 83 | 1005.8 |
| 20260510134044 | 11 | 230 | 0.0 | 4.8 | 0.00 | 0.00 | 0.00 | 83 | 1005.5 |
| 20260510133550 | 11 | 227 | 0.0 | 4.8 | 0.00 | 0.00 | 0.00 | 83 | 1005.7 |
| 20260510133058 | 11 | 227 | 0.0 | 4.8 | 0.00 | 0.00 | 0.00 | 83 | 1005.6 |
| 20260510132503 | 11 | 227 | 0.0 | 4.8 | 0.00 | 0.00 | 0.00 | 83 | 1005.6 |
| 20260510132017 | 11 | 227 | 1.6 | 4.8 | 0.00 | 0.00 | 0.00 | 83 | 1005.6 |
| 20260510131531 | 11 | 227 | 0.0 | 3.2 | 0.00 | 0.00 | 0.00 | 83 | 1005.3 |
| 20260510131033 | 11 | 227 | 1.6 | 3.2 | 0.00 | 0.00 | 0.00 | 83 | 1005.3 |
| 20260510130541 | 11 | 227 | 1.6 | 6.4 | 0.00 | 0.00 | 0.00 | 83 | 1005.2 |
| 20260510125503 | 11 | 261 | 1.6 | 4.8 | 0.00 | 0.00 | 0.00 | 83 | 1005.3 |
| 20260510125016 | 11 | 257 | 1.6 | 4.8 | 0.00 | 0.00 | 0.00 | 83 | 1005.3 |
| 20260510124552 | 11 | 257 | 0.0 | 4.8 | 0.00 | 0.00 | 0.00 | 83 | 1005.4 |
| 20260510124058 | 11 | 257 | 0.0 | 4.8 | 0.00 | 0.00 | 0.00 | 83 | 1005.5 |
| 20260510123603 | 11 | 292 | 0.0 | 1.6 | 0.00 | 0.00 | 0.00 | 83 | 1005.6 |
| 20260510123036 | 11 | 292 | 0.0 | 4.8 | 0.00 | 0.00 | 0.00 | 83 | 1005.6 |
| 20260510122540 | 11 | 292 | 0.0 | 4.8 | 0.00 | 0.00 | 0.00 | 83 | 1005.5 |
| 20260510122042 | 11 | 292 | 1.6 | 6.4 | 0.00 | 0.00 | 0.00 | 83 | 1005.5 |
| 20260510121556 | 11 | 292 | 0.0 | 6.4 | 0.00 | 0.00 | 0.00 | 83 | 1005.5 |
| 20260510121105 | 11 | 317 | 3.2 | 4.8 | 0.00 | 0.00 | 0.00 | 83 | 1005.4 |
| 20260510120602 | 11 | 14 | 1.6 | 4.8 | 0.00 | 0.00 | 0.00 | 83 | 1005.4 |
| 20260510120036 | 11 | 329 | 0.0 | 8.0 | 0.00 | 0.00 | 0.00 | 83 | 1005.5 |
| 20260510115542 | 11 | 329 | 3.2 | 8.0 | 0.00 | 0.00 | 0.00 | 83 | 1005.3 |
| 20260510115046 | 11 | 277 | 3.2 | 8.0 | 0.00 | 0.00 | 0.00 | 83 | 1005.4 |
| 20260510114518 | 11 | 290 | 0.0 | 8.0 | 0.00 | 0.00 | 0.00 | 83 | 1005.2 |
| 20260510114025 | 11 | 290 | 1.6 | 8.0 | 0.00 | 0.00 | 0.00 | 83 | 1005.3 |
| 20260510113530 | 11 | 230 | 0.0 | 6.4 | 0.00 | 0.00 | 0.00 | 83 | 1005.3 |
| 20260510113108 | 11 | 223 | 1.6 | 8.0 | 0.00 | 0.00 | 0.00 | 83 | 1005.2 |
| 20260510112602 | 11 | 287 | 3.2 | 8.0 | 0.00 | 0.00 | 0.00 | 83 | 1005.1 |
| 20260510112016 | 11 | 304 | 1.6 | 9.7 | 0.00 | 0.00 | 0.00 | 83 | 1005.2 |
| 20260510111526 | 11 | 295 | 1.6 | 9.7 | 0.00 | 0.00 | 0.00 | 82 | 1005.2 |
| 20260510111032 | 11 | 316 | 3.2 | 8.0 | 0.00 | 0.00 | 0.00 | 82 | 1005.4 |
| 20260510110538 | 11 | 273 | 0.0 | 4.8 | 0.00 | 0.00 | 0.00 | 82 | 1005.4 |
| 20260510110105 | 12 | 228 | 1.6 | 4.8 | 0.00 | 0.00 | 0.00 | 82 | 1005.3 |
| 20260510105513 | 12 | 46 | 0.0 | 0.0 | 0.00 | 0.00 | 0.00 | 82 | 1005.1 |
| 20260510105008 | 12 | 46 | 0.0 | 3.2 | 0.00 | 0.00 | 0.00 | 81 | 1004.9 |
| 20260510104533 | 12 | 46 | 0.0 | 4.8 | 0.00 | 0.00 | 0.00 | 81 | 1005.0 |
| 20260510104032 | 12 | 46 | 0.0 | 6.4 | 0.00 | 0.00 | 0.00 | 81 | 1004.9 |
| 20260510103538 | 12 | 360 | 0.0 | 6.4 | 0.00 | 0.00 | 0.00 | 81 | 1004.8 |
| 20260510103051 | 12 | 5 | 0.0 | 6.4 | 0.00 | 0.00 | 0.00 | 81 | 1004.8 |
| 20260510102552 | 12 | 21 | 3.2 | 6.4 | 0.00 | 0.00 | 0.00 | 80 | 1004.6 |
| 20260510102100 | 12 | 34 | 3.2 | 4.8 | 0.00 | 0.00 | 0.00 | 79 | 1004.6 |
| 20260510101536 | 12 | 5 | 1.6 | 4.8 | 0.00 | 0.00 | 0.00 | 79 | 1004.6 |
| 20260510101041 | 12 | 20 | 0.0 | 1.6 | 0.00 | 0.00 | 0.00 | 79 | 1004.3 |
| 20260510100541 | 12 | 20 | 0.0 | 1.6 | 0.00 | 0.00 | 0.00 | 79 | 1004.4 |
| 20260510100016 | 13 | 20 | 0.0 | 3.2 | 0.00 | 0.00 | 0.00 | 79 | 1004.2 |
| 20260510095522 | 13 | 20 | 1.6 | 3.2 | 0.00 | 0.00 | 0.00 | 78 | 1004.1 |
| 20260510095024 | 13 | 20 | 1.6 | 4.8 | 0.00 | 0.00 | 0.00 | 78 | 1003.9 |
| 20260510094552 | 13 | 28 | 3.2 | 4.8 | 0.00 | 0.00 | 0.00 | 77 | 1003.7 |
| 20260510094056 | 13 | 28 | 1.6 | 4.8 | 0.00 | 0.00 | 0.00 | 76 | 1003.7 |
| 20260510093602 | 13 | 28 | 0.0 | 0.0 | 0.00 | 0.00 | 0.00 | 76 | 1003.8 |
| 20260510093004 | 13 | 28 | 0.0 | 0.0 | 0.00 | 0.00 | 0.00 | 75 | 1003.8 |
| 20260510092509 | 13 | 28 | 0.0 | 0.0 | 0.00 | 0.00 | 0.00 | 75 | 1004.0 |
| 20260510092016 | 13 | 320 | 0.0 | 0.0 | 0.00 | 0.00 | 0.00 | 75 | 1004.0 |
| 20260510091544 | 13 | 279 | 0.0 | 0.0 | 0.00 | 0.00 | 0.00 | 74 | 1004.0 |
| 20260510091050 | 13 | 279 | 0.0 | 0.0 | 0.00 | 0.00 | 0.00 | 74 | 1004.0 |
| 20260510090556 | 13 | 279 | 0.0 | 0.0 | 0.00 | 0.00 | 0.00 | 74 | 1003.9 |
| 20260510090022 | 14 | 279 | 0.0 | 0.0 | 0.00 | 0.00 | 0.00 | 73 | 1003.9 |
| 20260510085525 | 14 | 279 | 0.0 | 0.0 | 0.00 | 0.00 | 0.00 | 73 | 1004.0 |
| 20260510085026 | 14 | 279 | 0.0 | 0.0 | 0.00 | 0.00 | 0.00 | 73 | 1003.9 |
| 20260510084559 | 14 | 279 | 0.0 | 0.0 | 0.00 | 0.00 | 0.00 | 73 | 1004.0 |
| 20260510084055 | 14 | 279 | 0.0 | 0.0 | 0.00 | 0.00 | 0.00 | 73 | 1003.9 |
| 20260510083600 | 14 | 279 | 0.0 | 0.0 | 0.00 | 0.00 | 0.00 | 72 | 1003.9 |
| 20260510083042 | 15 | 279 | 0.0 | 0.0 | 0.00 | 0.00 | 0.00 | 72 | 1003.8 |
| 20260510082533 | 15 | 279 | 0.0 | 0.0 | 0.00 | 0.00 | 0.00 | 72 | 1003.7 |
| 20260510082042 | 15 | 279 | 0.0 | 0.0 | 0.00 | 0.00 | 0.00 | 71 | 1003.7 |
| 20260510081534 | 15 | 279 | 0.0 | 4.8 | 0.00 | 0.00 | 0.00 | 71 | 1003.8 |
| 20260510081029 | 15 | 279 | 0.0 | 4.8 | 0.00 | 0.00 | 0.00 | 71 | 1003.7 |
| 20260510080515 | 15 | 269 | 0.0 | 0.0 | 0.00 | 0.00 | 0.00 | 71 | 1003.8 |
| 20260510080048 | 15 | 205 | 0.0 | 0.0 | 0.00 | 0.00 | 0.00 | 70 | 1003.7 |
| 20260510075555 | 15 | 205 | 0.0 | 0.0 | 0.00 | 0.00 | 0.00 | 69 | 1003.8 |
| 20260510075058 | 15 | 205 | 0.0 | 3.2 | 0.00 | 0.00 | 0.00 | 69 | 1003.7 |
| 20260510074510 | 15 | 199 | 0.0 | 4.8 | 0.00 | 0.00 | 0.00 | 69 | 1003.7 |
| 20260510074021 | 15 | 199 | 1.6 | 6.4 | 0.00 | 0.00 | 0.00 | 68 | 1003.6 |
| 20260510073527 | 15 | 199 | 1.6 | 6.4 | 0.00 | 0.00 | 0.00 | 68 | 1003.6 |
| 20260510073104 | 15 | 266 | 1.6 | 4.8 | 0.00 | 0.00 | 0.00 | 68 | 1003.6 |
| 20260510072507 | 15 | 268 | 1.6 | 4.8 | 0.00 | 0.00 | 0.00 | 68 | 1003.6 |
| 20260510072012 | 16 | 269 | 1.6 | 4.8 | 0.00 | 0.00 | 0.00 | 68 | 1003.7 |
| 20260510071540 | 16 | 269 | 3.2 | 4.8 | 0.00 | 0.00 | 0.00 | 67 | 1003.7 |
| 20260510071045 | 16 | 269 | 0.0 | 3.2 | 0.00 | 0.00 | 0.00 | 67 | 1003.7 |
| 20260510070553 | 16 | 269 | 0.0 | 3.2 | 0.00 | 0.00 | 0.00 | 67 | 1003.7 |
| 20260510070024 | 16 | 269 | 0.0 | 3.2 | 0.00 | 0.00 | 0.00 | 67 | 1003.7 |
| 20260510065523 | 16 | 268 | 0.0 | 0.0 | 0.00 | 0.00 | 0.00 | 66 | 1003.7 |
| 20260510065033 | 16 | 269 | 0.0 | 0.0 | 0.00 | 0.00 | 0.00 | 66 | 1003.7 |
| 20260510064552 | 16 | 269 | 0.0 | 0.0 | 0.00 | 0.00 | 0.00 | 66 | 1003.8 |
| 20260510064041 | 16 | 269 | 0.0 | 0.0 | 0.00 | 0.00 | 0.00 | 66 | 1003.7 |
| 20260510063548 | 16 | 268 | 0.0 | 3.2 | 0.00 | 0.00 | 0.00 | 66 | 1003.6 |
| 20260510063022 | 16 | 268 | 0.0 | 6.4 | 0.00 | 0.00 | 0.00 | 66 | 1003.7 |
| 20260510062523 | 16 | 294 | 1.6 | 4.8 | 0.00 | 0.00 | 0.00 | 65 | 1003.6 |
| 20260510062032 | 16 | 259 | 0.0 | 0.0 | 0.00 | 0.00 | 0.00 | 65 | 1003.6 |
| 20260510061505 | 16 | 235 | 0.0 | 4.8 | 0.00 | 0.00 | 0.00 | 64 | 1003.5 |
| 20260510061007 | 16 | 235 | 1.6 | 4.8 | 0.00 | 0.00 | 0.00 | 64 | 1003.5 |
| 20260510060516 | 16 | 232 | 1.6 | 4.8 | 0.00 | 0.00 | 0.00 | 63 | 1003.6 |
| 20260510060053 | 16 | 232 | 1.6 | 4.8 | 0.00 | 0.00 | 0.00 | 63 | 1003.5 |
| 20260510055600 | 16 | 232 | 3.2 | 4.8 | 0.00 | 0.00 | 0.00 | 63 | 1003.6 |
| 20260510055100 | 17 | 232 | 1.6 | 4.8 | 0.00 | 0.00 | 0.00 | 62 | 1003.6 |
| 20260510054537 | 17 | 232 | 3.2 | 4.8 | 0.00 | 0.00 | 0.00 | 61 | 1003.6 |
| 20260510054044 | 17 | 232 | 3.2 | 4.8 | 0.00 | 0.00 | 0.00 | 61 | 1003.6 |
| 20260510053545 | 17 | 232 | 1.6 | 4.8 | 0.00 | 0.00 | 0.00 | 61 | 1003.6 |
| 20260510053016 | 17 | 232 | 3.2 | 4.8 | 0.00 | 0.00 | 0.00 | 60 | 1003.6 |
| 20260510052518 | 17 | 232 | 1.6 | 4.8 | 0.00 | 0.00 | 0.00 | 60 | 1003.5 |
| 20260510052034 | 17 | 232 | 3.2 | 4.8 | 0.00 | 0.00 | 0.00 | 60 | 1003.5 |
| 20260510051605 | 17 | 232 | 3.2 | 4.8 | 0.00 | 0.00 | 0.00 | 59 | 1003.5 |
| 20260510051004 | 17 | 238 | 3.2 | 4.8 | 0.00 | 0.00 | 0.00 | 59 | 1003.5 |
| 20260510050509 | 17 | 238 | 3.2 | 4.8 | 0.00 | 0.00 | 0.00 | 59 | 1003.4 |
| 20260510050043 | 17 | 238 | 3.2 | 4.8 | 0.00 | 0.00 | 0.00 | 59 | 1003.4 |
| 20260510045552 | 17 | 238 | 1.6 | 4.8 | 0.00 | 0.00 | 0.00 | 59 | 1003.5 |
| 20260510045100 | 17 | 292 | 1.6 | 4.8 | 0.00 | 0.00 | 0.00 | 58 | 1003.4 |
| 20260510044544 | 17 | 247 | 1.6 | 4.8 | 0.00 | 0.00 | 0.00 | 58 | 1003.4 |
| 20260510044033 | 17 | 275 | 1.6 | 6.4 | 0.00 | 0.00 | 0.00 | 58 | 1003.5 |
| 20260510043538 | 18 | 232 | 1.6 | 6.4 | 0.00 | 0.00 | 0.00 | 57 | 1003.4 |
| 20260510043004 | 18 | 223 | 1.6 | 6.4 | 0.00 | 0.00 | 0.00 | 57 | 1003.4 |
| 20260510042504 | 18 | 268 | 1.6 | 6.4 | 0.00 | 0.00 | 0.00 | 57 | 1003.3 |
| 20260510042012 | 18 | 238 | 3.2 | 6.4 | 0.00 | 0.00 | 0.00 | 57 | 1003.4 |
| 20260510041550 | 18 | 224 | 1.6 | 4.8 | 0.00 | 0.00 | 0.00 | 57 | 1003.3 |
| 20260510041050 | 18 | 227 | 1.6 | 4.8 | 0.00 | 0.00 | 0.00 | 57 | 1003.1 |
| 20260510040556 | 18 | 226 | 0.0 | 4.8 | 0.00 | 0.00 | 0.00 | 57 | 1003.0 |
| 20260510040042 | 18 | 272 | 0.0 | 4.8 | 0.00 | 0.00 | 0.00 | 56 | 1003.0 |
| 20260510035544 | 19 | 285 | 1.6 | 4.8 | 0.00 | 0.00 | 0.00 | 56 | 1002.8 |
| 20260510035035 | 19 | 293 | 1.6 | 4.8 | 0.00 | 0.00 | 0.00 | 56 | 1002.7 |
| 20260510034546 | 19 | 280 | 1.6 | 4.8 | 0.00 | 0.00 | 0.00 | 56 | 1002.8 |
| 20260510034056 | 19 | 285 | 1.6 | 3.2 | 0.00 | 0.00 | 0.00 | 56 | 1002.7 |
| 20260510033604 | 20 | 285 | 1.6 | 3.2 | 0.00 | 0.00 | 0.00 | 55 | 1002.7 |
| 20260510033055 | 20 | 285 | 0.0 | 3.2 | 0.00 | 0.00 | 0.00 | 55 | 1002.7 |
| 20260510032550 | 20 | 285 | 1.6 | 3.2 | 0.00 | 0.00 | 0.00 | 55 | 1002.7 |
| 20260510032054 | 20 | 285 | 1.6 | 3.2 | 0.00 | 0.00 | 0.00 | 55 | 1002.6 |
| 20260510031532 | 20 | 285 | 1.6 | 3.2 | 0.00 | 0.00 | 0.00 | 55 | 1002.6 |
| 20260510031035 | 20 | 350 | 0.0 | 3.2 | 0.00 | 0.00 | 0.00 | 55 | 1002.6 |
| 20260510030541 | 20 | 350 | 1.6 | 3.2 | 0.00 | 0.00 | 0.00 | 54 | 1002.5 |
| 20260510030021 | 21 | 350 | 0.0 | 4.8 | 0.00 | 0.00 | 0.00 | 53 | 1002.5 |
| 20260510025529 | 21 | 350 | 1.6 | 6.4 | 0.00 | 0.00 | 0.00 | 53 | 1002.5 |
| 20260510025041 | 21 | 329 | 3.2 | 6.4 | 0.00 | 0.00 | 0.00 | 53 | 1002.5 |
| 20260510024517 | 21 | 51 | 0.0 | 8.0 | 0.00 | 0.00 | 0.00 | 53 | 1002.5 |
| 20260510024021 | 21 | 60 | 3.2 | 8.0 | 0.00 | 0.00 | 0.00 | 52 | 1002.5 |
| 20260510023528 | 21 | 22 | 3.2 | 8.0 | 0.00 | 0.00 | 0.00 | 52 | 1002.5 |
| 20260510023102 | 21 | 31 | 3.2 | 9.7 | 0.00 | 0.00 | 0.00 | 52 | 1002.4 |
| 20260510022508 | 22 | 20 | 3.2 | 9.7 | 0.00 | 0.00 | 0.00 | 52 | 1002.4 |
| 20260510022013 | 22 | 55 | 4.8 | 8.0 | 0.00 | 0.00 | 0.00 | 51 | 1002.4 |
| 20260510021552 | 22 | 11 | 1.6 | 6.4 | 0.00 | 0.00 | 0.00 | 53 | 1002.4 |
| 20260510021059 | 22 | 351 | 0.0 | 8.0 | 0.00 | 0.00 | 0.00 | 50 | 1002.3 |
| 20260510020507 | 22 | 43 | 1.6 | 6.4 | 0.00 | 0.00 | 0.00 | 48 | 1002.3 |
| 20260510020048 | 22 | 19 | 0.0 | 6.4 | 0.00 | 0.00 | 0.00 | 48 | 1002.3 |
| 20260510015555 | 22 | 17 | 3.2 | 6.4 | 0.00 | 0.00 | 0.00 | 48 | 1002.5 |
| 20260510015019 | 22 | 355 | 0.0 | 0.0 | 0.00 | 0.00 | 0.00 | 48 | 1002.4 |
| 20260510014528 | 22 | 355 | 0.0 | 0.0 | 0.00 | 0.00 | 0.00 | 47 | 1002.4 |
| 20260510014032 | 23 | 355 | 0.0 | 3.2 | 0.00 | 0.00 | 0.00 | 45 | 1002.5 |
| 20260510013536 | 23 | 350 | 1.6 | 3.2 | 0.00 | 0.00 | 0.00 | 47 | 1002.6 |
| 20260510013008 | 23 | 351 | 0.0 | 4.8 | 0.00 | 0.00 | 0.00 | 42 | 1002.5 |
| 20260510012519 | 23 | 350 | 1.6 | 4.8 | 0.00 | 0.00 | 0.00 | 40 | 1002.5 |
| 20260510012029 | 23 | 314 | 1.6 | 3.2 | 0.00 | 0.00 | 0.00 | 46 | 1002.5 |
| 20260510011558 | 23 | 314 | 1.6 | 4.8 | 0.00 | 0.00 | 0.00 | 44 | 1002.5 |
| 20260510011004 | 23 | 312 | 1.6 | 4.8 | 0.00 | 0.00 | 0.00 | 43 | 1002.6 |
| 20260510010511 | 23 | 331 | 1.6 | 4.8 | 0.00 | 0.00 | 0.00 | 42 | 1002.6 |
| 20260510010049 | 23 | 331 | 0.0 | 3.2 | 0.00 | 0.00 | 0.00 | 44 | 1002.6 |
| 20260510005557 | 23 | 22 | 0.0 | 4.8 | 0.00 | 0.00 | 0.00 | 45 | 1002.7 |
| 20260510005005 | 23 | 22 | 0.0 | 4.8 | 0.00 | 0.00 | 0.00 | 45 | 1002.6 |
| 20260510004528 | 23 | 332 | 0.0 | 1.6 | 0.00 | 0.00 | 0.00 | 43 | 1002.7 |
| 20260510004037 | 23 | 332 | 0.0 | 1.6 | 0.00 | 0.00 | 0.00 | 43 | 1002.6 |
| 20260510003545 | 23 | 332 | 0.0 | 4.8 | 0.00 | 0.00 | 0.00 | 44 | 1002.7 |
| 20260510003021 | 24 | 332 | 1.6 | 6.4 | 0.00 | 0.00 | 0.00 | 41 | 1002.7 |
| 20260510002515 | 24 | 238 | 1.6 | 4.8 | 0.00 | 0.00 | 0.00 | 43 | 1002.9 |
| 20260510002031 | 24 | 331 | 0.0 | 4.8 | 0.00 | 0.00 | 0.00 | 41 | 1002.9 |
| 20260510001546 | 24 | 355 | 0.0 | 6.4 | 0.00 | 0.00 | 0.00 | 35 | 1002.8 |
| 20260510001054 | 24 | 355 | 3.2 | 6.4 | 0.00 | 0.00 | 0.00 | 36 | 1003.0 |
| 20260510000558 | 25 | 315 | 0.0 | 4.8 | 0.00 | 0.00 | 0.00 | 36 | 1003.0 |
| 20260510000032 | 24 | 300 | 1.6 | 8.0 | 0.00 | 0.00 | 0.00 | 36 | 1003.0 |
| 20260509235539 | 24 | 337 | 4.8 | 8.0 | 0.00 | 0.00 | 0.00 | 38 | 1003.2 |
| 20260509235051 | 24 | 276 | 4.8 | 6.4 | 0.00 | 0.00 | 0.00 | 36 | 1003.1 |
| 20260509234539 | 24 | 5 | 0.0 | 12.9 | 0.00 | 0.00 | 0.00 | 41 | 1003.1 |
| 20260509234039 | 24 | 355 | 1.6 | 12.9 | 0.00 | 0.00 | 0.00 | 35 | 1003.2 |
| 20260509233544 | 24 | 268 | 1.6 | 8.0 | 0.00 | 0.00 | 0.00 | 33 | 1003.3 |
| 20260509233010 | 24 | 279 | 1.6 | 12.9 | 0.00 | 0.00 | 0.00 | 32 | 1003.3 |
| 20260509232528 | 24 | 279 | 6.4 | 12.9 | 0.00 | 0.00 | 0.00 | 34 | 1003.3 |
| 20260509232031 | 24 | 316 | 4.8 | 11.3 | 0.00 | 0.00 | 0.00 | 35 | 1003.3 |
| 20260509231602 | 25 | 279 | 4.8 | 9.7 | 0.00 | 0.00 | 0.00 | 33 | 1003.3 |
| 20260509231003 | 24 | 306 | 3.2 | 12.9 | 0.00 | 0.00 | 0.00 | 40 | 1003.5 |
| 20260509230509 | 24 | 253 | 6.4 | 12.9 | 0.00 | 0.00 | 0.00 | 35 | 1003.6 |
| 20260509230043 | 24 | 327 | 1.6 | 9.7 | 0.00 | 0.00 | 0.00 | 36 | 1003.7 |
| 20260509225552 | 24 | 58 | 3.2 | 9.7 | 0.00 | 0.00 | 0.00 | 38 | 1003.8 |